Погода в Джимпи

Австралия     26°11′18″S   152°39′29″E
темп.,
°C
ветер,
м/с
пор.,
м/с
влажн.,
%
обл.,
%
осадки,
мм/ч
давл.,
гПа
погр.,
м
20 апреля, вт
вт2001:00+13юз11930 0.0 101811
04:00+13зюз11950 0.0 101711
07:00+14з11870 0.0 101937
10:00+23сз23520 0.0 1019932
13:00+26зсз12370 0.0 10151747
16:00+25св12460 0.0 1014284
19:00+17с12810 0.0 101643
22:00+15сз11890 0.0 101724
21 апреля, ср
ср2101:00+14сз11940 0.0 101617
04:00+13зсз11961 0.0 101518
07:00+15зсз13890 0.0 101689
10:00+24сз37530 0.0 1015864
13:00+29зсз48395 0.0 10112180
16:00+28з26480 0.0 1010818
19:00+19з11570 0.0 101312
22:00+17ссв11730 0.0 101511
22 апреля, чт
чт2201:00+15юз11620 0.0 101412
04:00+14юз115112 0.0 101412
07:00+15юз115422 0.0 101528
10:00+23ююз2336100 0.0 1015578
13:00+26зюз1330100 0.0 10131309
16:00+24з124697 0.0 101252
19:00+19вюв1152100 0.0 101513
22:00+18з1152100 0.0 101612
23 апреля, пт
пт2301:00+15ююз2149100 0.0 101624
04:00+13з1147100 0.0 101612
07:00+13з12500 0.0 101846
10:00+20ююз24280 0.0 1019843
13:00+24ююв22232 0.0 10161501
16:00+21в354259 0.0 1016433
19:00+13ююв227727 0.0 101932
22:00+11ююз11825 0.0 102114
24 апреля, сб
сб2401:00+11ююз11813 0.0 102015
04:00+11ююз22855 0.0 102024
07:00+12ю12816 0.0 102172
10:00+21юв23530 0.0 10221085
13:00+24вюв22410 0.0 10191729
16:00+21в45570 0.0 1019749
19:00+14ююв22870 0.0 102124
22:00+13ю22950 0.0 102227